Location: St. Louis
(38.6270°N, 90.1994°W)
Time: 09:00:41
(UTC-06:00)

Vanguard 2 Rocket - Pass Details

Date: 09 December 2021
Orbit: 553 x 3325 km, 32.9° (Epoch: 23 January)

Event Time Altitude Azimuth Distance (km) Brightness Sun altitude
Rises 19:36:59 0° 268° (W) 3,365 10.9 -33.9°
Reaches altitude 10° 19:39:06 10° 262° (W) 2,646 10.1 -34.3°
Maximum altitude 19:45:14 49° 189° (S) 1,645 8.1 -35.5°
Enters shadow 19:45:26 49° 184° (S) 1,663 8.1 -35.5°
Drops below altitude 10° 19:55:54 10° 119° (ESE) 4,514 - -37.5°
Sets 20:00:39 0° 115° (ESE) 5,981 - -38.5°
